Lid_Strength_Index
-0 -0 -0 -0 -0 -0 -1 -1 -1 3 6 7 6 6 4 5 4 4 5 5 6 8 9 11 9 10 12 12
0 0 0 -0 0 -0 -1 -1 -0 6 9 5 6 5 5 5 5 5 5 6 6 8 9 9 10 12 13 14
1 1 1 0 -0 -1 -1 -0 6 9 10 3 7 6 6 6 6 6 6 5 7 9 9 12 14 14 16 16
1 1 1 1 -0 2 2 3 4 10 9 9 7 7 7 6 7 7 7 8 10 12 13 14 16 17 17 16
2 2 3 5 8 9 7 10 10 10 9 8 7 9 7 8 8 10 12 10 13 15 15 14 14 15 16 17
3 3 5 7 8 7 10 7 8 8 8 8 10 9 8 11 11 13 12 13 15 12 12 12 13 14 16 16
3 5 6 6 5 6 11 8 8 9 9 8 10 10 9 11 12 13 14 15 13 11 12 14 14 16 17 17
6 6 6 4 5 7 15 12 10 9 9 9 11 9 9 10 12 13 13 14 12 13 14 14 15 18 15 15
8 6 6 6 6 9 20 11 11 8 10 11 11 11 9 11 13 13 14 15 14 14 15 14 15 16 15 16
7 6 5 6 8 15 19 13 11 12 12 11 11 10 11 10 11 13 14 15 13 14 15 14 15 14 16 15
7 5 6 9 15 18 13 14 13 12 13 14 13 13 13 15 15 17 18 15 15 15 14 16 15 16 17 19
6 7 9 12 19 15 14 12 12 13 15 13 14 13 15 16 14 15 17 17 18 16 15 17 16 17 17 19
7 7 11 17 16 14 12 13 13 16 16 13 14 15 15 15 14 14 17 17 17 16 16 16 16 17 18 17
6 9 13 14 14 12 11 12 15 15 17 15 15 15 16 14 13 13 14 15 18 17 16 16 16 17 16 18
7 12 14 15 12 11 11 13 14 15 15 15 15 16 15 14 13 14 14 16 16 19 17 18 18 18 18 18
11 13 14 13 10 12 11 12 12 13 14 14 15 15 15 14 12 13 15 16 17 19 18 17 17 18 18 17
13 15 13 12 12 12 12 12 13 12 13 14 16 15 14 12 12 13 15 15 17 20 19 18 18 18 17 17